Location: Newark
(38.2000°N, 48.6000°E)
Time: 04:20:23
(UTC+00:00)

Envisat - Visible Passes

Search period start: 23 August 2019 00:00
Search period end: 02 September 2019 00:00
Orbit: 764 x 766 km, 98.1° (Epoch: 22 August)

Date Brightness Start Highest point End Pass type
(mag) Time Alt. Az. Time Alt. Az. Time Alt. Az.
24 Aug 5.7 16:05:36 10° SW 16:09:26 22° W 16:13:18 10° NW visible
26 Aug 6.1 16:33:30 10° WSW 16:35:12 12° W 16:36:55 10° WNW visible
27 Aug 5.3 15:53:50 10° SSW 15:58:06 27° W 16:02:25 10° NW visible
29 Aug 5.9 16:20:55 10° SW 16:23:50 15° W 16:26:45 10° NW visible
30 Aug 4.9 15:42:11 10° SSW 15:46:47 35° W 15:51:26 10° NNW visible
01 Sep 5.8 16:08:51 10° SW 16:12:29 20° W 16:16:07 10° NW visible
